TimeMST,TemperatureF,Dew PointF,Humidity,Sea Level PressureIn,VisibilityMPH,Wind Direction,Wind SpeedMPH,Gust SpeedMPH,PrecipitationIn,Events,Conditions,WindDirDegrees,DateUTC
12:56 AM,17.1,12.0,81,29.53,-9999.0,North,13.8,-,N/A,,Unknown,360,2014-01-30 07:56:00
1:56 AM,15.1,10.0,80,29.60,-9999.0,North,12.7,-,N/A,,Unknown,360,2014-01-30 08:56:00
2:56 AM,14.0,8.1,77,29.64,-9999.0,North,16.1,-,N/A,,Unknown,350,2014-01-30 09:56:00
3:56 AM,10.0,5.0,80,29.70,-9999.0,NNW,13.8,-,N/A,,Unknown,340,2014-01-30 10:56:00
4:56 AM,8.1,3.9,83,29.75,-9999.0,NNW,17.3,-,N/A,,Unknown,330,2014-01-30 11:56:00
5:56 AM,8.1,3.0,80,29.79,-9999.0,NNW,19.6,-,N/A,,Unknown,330,2014-01-30 12:56:00
6:56 AM,8.1,1.9,76,29.82,-9999.0,NW,19.6,-,N/A,,Unknown,320,2014-01-30 13:56:00
7:56 AM,8.1,3.0,80,29.84,-9999.0,NW,20.7,-,N/A,,Unknown,320,2014-01-30 14:56:00
8:56 AM,10.0,3.9,76,29.88,-9999.0,NW,19.6,-,N/A,,Unknown,320,2014-01-30 15:56:00
9:56 AM,10.0,3.0,73,29.92,-9999.0,NW,17.3,-,N/A,,Unknown,310,2014-01-30 16:56:00
10:56 AM,10.0,3.9,76,29.96,-9999.0,NW,18.4,-,N/A,,Unknown,310,2014-01-30 17:56:00
11:56 AM,10.9,3.9,73,29.96,-9999.0,WNW,21.9,-,N/A,,Unknown,300,2014-01-30 18:56:00
12:56 PM,12.0,3.9,70,29.94,-9999.0,NW,17.3,-,N/A,,Unknown,310,2014-01-30 19:56:00
1:56 PM,12.9,3.9,67,29.95,-9999.0,NW,17.3,-,N/A,,Unknown,310,2014-01-30 20:56:00
2:56 PM,12.0,3.9,70,29.96,-9999.0,NW,20.7,-,N/A,,Unknown,310,2014-01-30 21:56:00
3:56 PM,10.9,3.0,70,29.99,-9999.0,NW,23.0,-,N/A,,Unknown,310,2014-01-30 22:56:00
4:56 PM,9.0,1.9,73,30.01,-9999.0,WNW,16.1,-,N/A,,Unknown,290,2014-01-30 23:56:00
5:56 PM,5.0,-0.9,76,30.04,-9999.0,WNW,15.0,-,N/A,,Unknown,290,2014-01-31 00:56:00
6:56 PM,1.9,-2.9,80,30.05,-9999.0,WNW,15.0,-,N/A,,Unknown,290,2014-01-31 01:56:00
7:56 PM,-0.9,-5.1,83,30.05,-9999.0,West,12.7,-,N/A,,Unknown,280,2014-01-31 02:56:00
8:56 PM,5.0,-0.9,76,30.04,-9999.0,WNW,12.7,-,N/A,,Unknown,290,2014-01-31 03:56:00
9:56 PM,7.0,1.0,77,30.02,-9999.0,WNW,15.0,-,N/A,,Unknown,300,2014-01-31 04:56:00
10:56 PM,5.0,-0.0,80,30.01,-9999.0,WNW,17.3,-,N/A,,Unknown,290,2014-01-31 05:56:00
11:56 PM,1.0,-2.9,83,30.01,-9999.0,West,9.2,-,N/A,,Unknown,270,2014-01-31 06:56:00